Location: Paderno d�Adda
(45.6667°N, 9.4333°E)
Time: 04:25:06
(UTC+00:00)

Cosmos 1125 Rocket - Pass Details

Date: 24 January 2021
Orbit: 757 x 781 km, 74.0° (Epoch: 05 March)

Event Time Altitude Azimuth Distance (km) Brightness Sun altitude
Exits shadow 03:28:44 - 9° (N) 2,632 6.4 -35.4°
Reaches altitude 10° 03:30:32 10° 25° (NNE) 2,337 6.3 -35.1°
Maximum altitude 03:32:15 11° 44° (NE) 2,237 6.4 -34.8°
Drops below altitude 10° 03:33:57 10° 63° (ENE) 2,337 6.7 -34.5°
Sets 03:38:16 0° 97° (E) 3,262 7.8 -33.7°
